Flag for U.S.A. Weather past 2 weeks in Lexington-Fayette, Kentucky, U.S.A.

Now
72 °F

Passing clouds.


Feels Like: 70 °F
Forecast: 68 / 84 °F
Wind: 3 mph from South

Location: Blue Grass Airport

Current Time: Sep 3, 2014 at 12:58:19 AM

Latest Report: Sep 2, 2014 at 11:54 PM


Visibility: 10 mi

Pressure: 30.00 "Hg

Humidity: 87%

Dew point: 68 °F

Location of Lexington-FayetteLocation

Historic Weather in Lexington-Fayette — Graph

°F

Lexington-Fayette temperature yesterday

Maximum temperature yesterday: 85 °F (at 1:54 PM)
Minimum temperature yesterday: 71 °F (at 9:54 PM)
Average temperature yesterday: 76 °F

Past Weeks' High & Low Weather Summary

 TemperatureHumidityPressure
High92 °F (Aug 23, 3:54 PM)93% (Aug 19, 8:54 AM)30.14 "Hg (Aug 19, 8:54 AM)
Low68 °F (Aug 27, 4:54 AM)43% (Aug 29, 5:54 PM)29.82 "Hg (Aug 19, 3:54 AM)
Average78 °F76%30.01 "Hg
* Reported Aug 18 11:54 PM — Sep 2 11:54 PM, Lexington-Fayette, Weather by CustomWeather, © 2014

Note: Actual official high and low records may vary slightly from our data, if they occured in-between our weather recording intervals... More about our weather records

Advertising

Lexington-Fayette weather history for previous 24 hours

 ConditionsComfort  
Time TempWeatherWind HumidityBarometerVisibility
11:54 PM
Sep 2
72 °FPassing clouds.3 mph87%30.00 "Hg10 mi
10:54 PM71 °FClear.6 mph90%30.00 "Hg10 mi
9:54 PM71 °FClear.5 mph90%29.98 "Hg10 mi
8:54 PM72 °FSunny.No wind91%29.97 "Hg10 mi
7:54 PM73 °FPassing clouds.3 mph88%29.94 "Hg10 mi
7:04 PM73 °FThunderstorms. Fog.8 mph88%29.96 "Hg1 mi
6:54 PM73 °FHeavy rain. Fog.12 mph88%29.96 "Hg1 mi
5:54 PM78 °FSunny.10 mph79%29.93 "Hg10 mi
4:54 PM75 °FPassing clouds.10 mph85%29.94 "Hg10 mi
4:02 PM73 °FHeavy rain. Broken clouds.16 mph81%29.98 "Hg1 mi
2:54 PM85 °FBroken clouds.14 mph63%29.94 "Hg10 mi
1:54 PM85 °FBroken clouds.12 mph63%29.96 "Hg10 mi
12:54 PM83 °FPartly sunny.13 mph63%29.97 "Hg10 mi
11:54 AM80 °FPassing clouds.10 mph69%29.99 "Hg10 mi
10:54 AM76 °FPassing clouds.7 mph80%29.99 "Hg10 mi
9:54 AM77 °FMostly cloudy.7 mph79%30.02 "Hg10 mi
8:54 AM77 °FPassing clouds.13 mph77%29.97 "Hg10 mi
7:54 AM75 °FClear.10 mph79%29.98 "Hg10 mi
6:54 AM75 °FClear.9 mph79%29.98 "Hg10 mi
5:54 AM74 °FPassing clouds.7 mph85%30.00 "Hg10 mi
4:54 AM75 °FPassing clouds.7 mph82%29.98 "Hg10 mi
3:54 AM75 °FClear.8 mph82%29.98 "Hg10 mi
2:54 AM76 °FPassing clouds.8 mph82%29.99 "Hg10 mi
1:54 AM75 °FClear.8 mph85%29.98 "Hg10 mi
12:54 AM75 °FClear.7 mph85%29.99 "Hg10 mi
Weather by CustomWeather, © 2014

See weather overviewHow to use our weather pages